GW2765 Weather Reports


Display with metric or nautical units.
time (UTC)temp
F
wind
direction
speed
MPH
gust
MPH
rain 1hr
in
rain 24hr
in
rain mn
in
humidity
%
barometer
mb
20260902195831 97 53 1.0 7.0 0.00 0.00 0.00 12 1012.2
20260902195330 98 68 1.0 5.0 0.00 0.00 0.00 14 1012.1
20260902194830 98 343 1.0 5.0 0.00 0.00 0.00 14 1012.2
20260902194331 97 137 1.0 4.0 0.00 0.00 0.00 13 1012.3
20260902193830 96 77 2.0 5.0 0.00 0.00 0.00 15 1012.3
20260902193559 96 63 2.0 5.0 0.00 0.00 0.00 14 1012.4
20260902192829 96 63 1.0 4.0 0.00 0.00 0.00 14 1012.4
20260902192329 96 65 1.0 5.0 0.00 0.00 0.00 13 1012.5
20260902191830 96 34 2.0 5.0 0.00 0.00 0.00 13 1012.4
20260902191329 96 41 2.0 7.0 0.00 0.00 0.00 12 1012.5
20260902190829 97 77 2.0 7.0 0.00 0.00 0.00 12 1012.4
20260902190332 96 153 1.0 5.0 0.00 0.00 0.00 13 1012.5
20260902185830 95 32 2.0 5.0 0.00 0.00 0.00 12 1012.7
20260902185329 95 70 2.0 5.0 0.00 0.00 0.00 12 1012.8
20260902184830 95 344 1.0 4.0 0.00 0.00 0.00 14 1012.8
20260902184331 95 79 1.0 5.0 0.00 0.00 0.00 13 1012.9
20260902183830 95 68 2.0 5.0 0.00 0.00 0.00 14 1013.0
20260902183328 95 319 1.0 4.0 0.00 0.00 0.00 14 1013.0
20260902182830 95 51 1.0 3.0 0.00 0.00 0.00 16 1012.9
20260902182329 94 187 0.0 3.0 0.00 0.00 0.00 14 1013.0
20260902181832 94 324 1.0 5.0 0.00 0.00 0.00 16 1013.2
20260902181330 94 113 1.0 5.0 0.00 0.00 0.00 14 1013.1
20260902180830 94 23 1.0 5.0 0.00 0.00 0.00 15 1013.2
20260902180329 93 58 2.0 7.0 0.00 0.00 0.00 15 1013.2
20260902175829 93 49 1.0 7.0 0.00 0.00 0.00 15 1013.2
20260902175329 94 56 2.0 7.0 0.00 0.00 0.00 16 1013.3
20260902174830 93 122 2.0 7.0 0.00 0.00 0.00 15 1013.3
20260902174558 93 60 2.0 5.0 0.00 0.00 0.00 16 1013.2
20260902174056 93 63 2.0 10.0 0.00 0.00 0.00 17 1013.2
20260902173322 92 87 2.0 10.0 0.00 0.00 0.00 17 1013.2
20260902172816 92 128 2.0 7.0 0.00 0.00 0.00 17 1013.2
20260902172309 92 63 3.0 7.0 0.00 0.00 0.00 18 1013.3
20260902171808 91 86 3.0 6.0 0.00 0.00 0.00 18 1013.3
20260902171532 91 134 2.0 6.0 0.00 0.00 0.00 18 1013.3
20260902171030 91 96 2.0 7.0 0.00 0.00 0.00 17 1013.2
20260902170307 91 108 2.0 7.0 0.00 0.00 0.00 18 1013.1
20260902165807 91 79 2.0 7.0 0.00 0.00 0.00 19 1013.2
20260902165309 90 108 2.0 6.0 0.00 0.00 0.00 20 1013.1
20260902164806 90 81 2.0 6.0 0.00 0.00 0.00 21 1013.1
20260902164306 90 39 1.0 5.0 0.00 0.00 0.00 20 1013.0
20260902163804 89 97 1.0 3.0 0.00 0.00 0.00 22 1013.1
20260902163304 89 85 1.0 4.0 0.00 0.00 0.00 21 1013.1
20260902162804 88 70 1.0 6.0 0.00 0.00 0.00 20 1012.9
20260902162307 89 70 1.0 6.0 0.00 0.00 0.00 19 1012.9
20260902161802 88 105 1.0 5.0 0.00 0.00 0.00 20 1012.9
20260902161530 87 53 1.0 5.0 0.00 0.00 0.00 20 1012.9
20260902160303 87 70 1.0 4.0 0.00 0.00 0.00 21 1013.0
20260902155803 87 149 1.0 4.0 0.00 0.00 0.00 23 1013.0
20260902155259 87 103 1.0 2.0 0.00 0.00 0.00 23 1013.0
20260902154750 86 186 0.0 2.0 0.00 0.00 0.00 23 1013.0
20260902154245 86 113 0.0 2.0 0.00 0.00 0.00 26 1013.0
20260902153745 85 181 0.0 3.0 0.00 0.00 0.00 27 1012.9
20260902153242 85 172 1.0 3.0 0.00 0.00 0.00 27 1012.8
20260902152742 84 209 1.0 3.0 0.00 0.00 0.00 29 1012.9
20260902152241 84 168 1.0 3.0 0.00 0.00 0.00 30 1012.9
20260902152009 83 191 1.0 3.0 0.00 0.00 0.00 30 1013.0
20260902151240 83 163 1.0 3.0 0.00 0.00 0.00 32 1013.0
20260902150740 82 182 0.0 0.0 0.00 0.00 0.00 31 1012.9
20260902150240 81 180 0.0 0.0 0.00 0.00 0.00 31 1012.9
20260902145738 80 180 0.0 0.0 0.00 0.00 0.00 35 1012.9
20260902145236 80 181 0.0 0.0 0.00 0.00 0.00 33 1012.9
20260902144737 78 184 0.0 0.0 0.00 0.00 0.00 34 1012.9
20260902144237 77 184 0.0 0.0 0.00 0.00 0.00 35 1012.8
20260902144003 77 153 0.0 1.0 0.00 0.00 0.00 37 1012.8
20260902143236 77 153 0.0 1.0 0.00 0.00 0.00 37 1012.8
20260902142736 76 179 1.0 2.0 0.00 0.00 0.00 36 1012.9
20260902142236 76 159 1.0 3.0 0.00 0.00 0.00 35 1012.9
20260902141954 76 205 1.0 3.0 0.00 0.00 0.00 36 1012.9
20260902141232 76 164 0.0 1.0 0.00 0.00 0.00 36 1012.9
20260902140731 75 210 0.0 1.0 0.00 0.00 0.00 37 1012.9
20260902140232 74 183 0.0 0.0 0.00 0.00 0.00 39 1012.8
20260902135732 73 184 0.0 1.0 0.00 0.00 0.00 39 1012.9
20260902135459 72 176 0.0 1.0 0.00 0.00 0.00 40 1012.8
20260902134729 71 189 0.0 1.0 0.00 0.00 0.00 41 1012.9
20260902134232 71 174 0.0 1.0 0.00 0.00 0.00 41 1012.8
20260902133730 71 179 0.0 2.0 0.00 0.00 0.00 41 1012.7
20260902133229 71 183 1.0 2.0 0.00 0.00 0.00 41 1012.7
20260902132726 71 143 0.0 3.0 0.00 0.00 0.00 41 1012.7
20260902132225 71 169 0.0 3.0 0.00 0.00 0.00 42 1012.8
20260902131955 71 166 0.0 1.0 0.00 0.00 0.00 40 1012.8
20260902131226 71 166 0.0 2.0 0.00 0.00 0.00 41 1012.7
20260902130723 71 167 0.0 2.0 0.00 0.00 0.00 42 1012.7
20260902130224 72 206 0.0 2.0 0.00 0.00 0.00 41 1012.7
20260902125725 72 173 0.0 1.0 0.00 0.00 0.00 41 1012.7
20260902125223 72 219 0.0 1.0 0.00 0.00 0.00 40 1012.6
20260902124722 72 219 0.0 1.0 0.00 0.00 0.00 40 1012.6
20260902123718 72 226 0.0 1.0 0.00 0.00 0.00 39 1012.6
20260902123218 72 224 0.0 1.0 0.00 0.00 0.00 43 1012.5
20260902122719 72 96 0.0 0.0 0.00 0.00 0.00 39 1012.4
20260902122218 73 96 0.0 1.0 0.00 0.00 0.00 40 1012.5
20260902121717 73 103 0.0 1.0 0.00 0.00 0.00 37 1012.4
20260902121219 74 116 0.0 1.0 0.00 0.00 0.00 37 1012.3
20260902120718 74 169 0.0 1.0 0.00 0.00 0.00 37 1012.5
20260902120219 74 169 1.0 3.0 0.00 0.00 0.00 37 1012.4
20260902115718 74 167 1.0 3.0 0.00 0.00 0.00 37 1012.4
20260902115437 73 171 0.0 3.0 0.00 0.00 0.00 37 1012.5
20260902114713 73 200 0.0 2.0 0.00 0.00 0.00 39 1012.4
20260902114213 73 221 0.0 2.0 0.00 0.00 0.00 38 1012.4
20260902113713 73 191 0.0 1.0 0.00 0.00 0.00 39 1012.4
20260902113214 74 195 0.0 1.0 0.00 0.00 0.00 39 1012.3
20260902112944 74 169 0.0 1.0 0.00 0.00 0.00 38 1012.2
20260902112215 74 160 0.0 1.0 0.00 0.00 0.00 38 1012.3
20260902111716 74 214 1.0 2.0 0.00 0.00 0.00 37 1012.3
20260902111215 74 209 1.0 2.0 0.00 0.00 0.00 38 1012.4
20260902110442 74 160 0.0 1.0 0.00 0.00 0.00 38 1012.4
20260902105937 74 184 0.0 2.0 0.00 0.00 0.00 38 1012.3
20260902105453 74 227 1.0 3.0 0.00 0.00 0.00 38 1012.4
20260902104710 74 168 1.0 3.0 0.00 0.00 0.00 39 1012.4
20260902104210 74 184 0.0 2.0 0.00 0.00 0.00 39 1012.4
20260902103709 74 212 0.0 2.0 0.00 0.00 0.00 39 1012.4
20260902103211 74 212 0.0 2.0 0.00 0.00 0.00 39 1012.5
20260902102710 74 207 0.0 2.0 0.00 0.00 0.00 40 1012.5
20260902102206 74 166 0.0 2.0 0.00 0.00 0.00 40 1012.3
20260902101705 74 179 0.0 2.0 0.00 0.00 0.00 39 1012.3
20260902101206 74 240 0.0 1.0 0.00 0.00 0.00 39 1012.4
20260902100706 74 207 0.0 1.0 0.00 0.00 0.00 39 1012.5
20260902100206 74 210 0.0 1.0 0.00 0.00 0.00 40 1012.6
20260902095706 74 203 0.0 1.0 0.00 0.00 0.00 39 1012.5
20260902095205 75 206 0.0 1.0 0.00 0.00 0.00 38 1012.6
20260902094706 75 206 0.0 1.0 0.00 0.00 0.00 38 1012.6
20260902094206 75 179 0.0 2.0 0.00 0.00 0.00 38 1012.5
20260902093706 76 212 0.0 2.0 0.00 0.00 0.00 38 1012.5
20260902093435 76 205 0.0 2.0 0.00 0.00 0.00 38 1012.5
20260902092705 76 200 0.0 2.0 0.00 0.00 0.00 38 1012.5
20260902092205 76 174 1.0 3.0 0.00 0.00 0.00 38 1012.5
20260902091936 76 181 1.0 3.0 0.00 0.00 0.00 38 1012.6
20260902091205 76 195 0.0 2.0 0.00 0.00 0.00 39 1012.6
20260902090933 76 216 0.0 1.0 0.00 0.00 0.00 39 1012.6
20260902090205 76 160 0.0 3.0 0.00 0.00 0.00 39 1012.6
20260902085706 76 189 0.0 3.0 0.00 0.00 0.00 39 1012.6
20260902085205 76 139 0.0 1.0 0.00 0.00 0.00 38 1012.5
20260902084706 77 169 0.0 2.0 0.00 0.00 0.00 38 1012.6
20260902084431 77 249 0.0 2.0 0.00 0.00 0.00 37 1012.5
20260902083701 77 164 0.0 1.0 0.00 0.00 0.00 37 1012.5
20260902083201 77 168 0.0 1.0 0.00 0.00 0.00 37 1012.5
20260902082701 77 141 0.0 0.0 0.00 0.00 0.00 37 1012.6
20260902082201 77 141 0.0 0.0 0.00 0.00 0.00 36 1012.4
20260902081703 78 156 0.0 2.0 0.00 0.00 0.00 36 1012.4
20260902081202 78 156 0.0 2.0 0.00 0.00 0.00 35 1012.4
20260902080701 78 175 0.0 1.0 0.00 0.00 0.00 36 1012.3
20260902080200 79 175 0.0 1.0 0.00 0.00 0.00 34 1012.3
20260902075701 78 138 0.0 0.0 0.00 0.00 0.00 33 1012.2
20260902075201 79 138 0.0 0.0 0.00 0.00 0.00 33 1012.2
20260902074702 79 138 0.0 1.0 0.00 0.00 0.00 32 1012.3
20260902074201 80 138 0.0 1.0 0.00 0.00 0.00 32 1012.3
20260902073703 80 155 0.0 1.0 0.00 0.00 0.00 32 1012.1
20260902073204 80 223 0.0 1.0 0.00 0.00 0.00 31 1012.1
20260902072702 80 223 0.0 2.0 0.00 0.00 0.00 32 1012.1
20260902072202 80 172 1.0 2.0 0.00 0.00 0.00 32 1012.0
20260902071702 80 215 0.0 2.0 0.00 0.00 0.00 32 1012.0
20260902071203 80 221 0.0 2.0 0.00 0.00 0.00 33 1011.9
20260902070933 80 109 0.0 1.0 0.00 0.00 0.00 32 1011.8
20260902070203 81 99 0.0 1.0 0.00 0.00 0.00 31 1011.8
20260902065703 81 179 0.0 3.0 0.00 0.00 0.00 31 1011.9
20260902065415 82 101 0.0 1.0 0.00 0.00 0.00 29 1011.8
20260902065405 82 198 0.0 3.0 0.00 0.00 0.00 30 1011.8
20260902064203 82 101 0.0 1.0 0.00 0.00 0.00 29 1011.8
20260902063703 82 82 0.0 3.0 0.00 0.00 0.00 29 1011.7
20260902063203 82 43 0.0 3.0 0.00 0.00 0.00 29 1011.6
20260902062702 82 23 0.0 1.0 0.00 0.00 0.00 29 1011.6
20260902062204 83 0 0.0 2.0 0.00 0.00 0.00 28 1011.6
20260902061702 83 343 1.0 5.0 0.00 0.00 0.00 28 1011.6
20260902061202 83 15 1.0 5.0 0.00 0.00 0.00 27 1011.6
20260902060702 83 352 0.0 3.0 0.00 0.00 0.00 28 1011.6
20260902060201 83 31 0.0 1.0 0.00 0.00 0.00 27 1011.5
20260902055701 83 53 0.0 1.0 0.00 0.00 0.00 27 1011.5
20260902055201 83 19 0.0 1.0 0.00 0.00 0.00 26 1011.5
20260902054201 84 6 0.0 1.0 0.00 0.00 0.00 26 1011.4
20260902053701 84 354 0.0 1.0 0.00 0.00 0.00 26 1011.4
20260902053427 85 257 0.0 1.0 0.00 0.00 0.00 26 1011.5
20260902052701 85 257 0.0 1.0 0.00 0.00 0.00 24 1011.5
20260902052202 86 257 0.0 1.0 0.00 0.00 0.00 23 1011.4
20260902051701 86 256 0.0 1.0 0.00 0.00 0.00 23 1011.5
20260902051201 86 37 0.0 2.0 0.00 0.00 0.00 22 1011.4
20260902050701 86 56 1.0 2.0 0.00 0.00 0.00 22 1011.3
20260902050201 86 209 0.0 2.0 0.00 0.00 0.00 22 1011.4
20260902045655 86 236 0.0 2.0 0.00 0.00 0.00 23 1011.3
20260902045151 86 67 0.0 2.0 0.00 0.00 0.00 23 1011.2
20260902044643 87 14 0.0 1.0 0.00 0.00 0.00 22 1011.3
20260902044140 87 89 0.0 1.0 0.00 0.00 0.00 21 1011.3
20260902043640 87 89 0.0 2.0 0.00 0.00 0.00 22 1011.5
20260902043139 87 65 1.0 3.0 0.00 0.00 0.00 22 1011.3
20260902042635 88 39 1.0 4.0 0.00 0.00 0.00 22 1011.2
20260902042135 88 80 1.0 4.0 0.00 0.00 0.00 22 1011.1
20260902041634 88 89 0.0 2.0 0.00 0.00 0.00 22 1011.0
20260902041134 88 76 0.0 2.0 0.00 0.00 0.00 22 1011.0
20260902040900 88 55 1.0 5.0 0.00 0.00 0.00 22 1010.9
20260902040133 89 43 1.0 5.0 0.00 0.00 0.00 22 1010.9
20260902035632 89 50 1.0 4.0 0.00 0.00 0.00 22 1010.8
20260902035131 89 66 2.0 6.0 0.00 0.00 0.00 21 1010.6
20260902034632 90 345 1.0 6.0 0.00 0.00 0.00 22 1010.6
20260902034131 90 74 0.0 4.0 0.00 0.00 0.00 22 1010.5
20260902033631 90 63 1.0 4.0 0.00 0.00 0.00 21 1010.5
20260902033352 91 137 1.0 4.0 0.00 0.00 0.00 21 1010.4
20260902032629 91 58 3.0 10.0 0.00 0.00 0.00 21 1010.3
20260902032400 92 92 5.0 10.0 0.00 0.00 0.00 21 1010.3
20260902031907 92 199 6.0 14.0 0.00 0.00 0.00 20 1010.2
20260902031125 92 219 7.0 20.0 0.00 0.00 0.00 21 1009.9
20260902030619 93 224 7.0 20.0 0.00 0.00 0.00 20 1009.9
20260902030340 92 269 7.0 12.0 0.00 0.00 0.00 20 1009.6
20260902025607 92 236 7.0 12.0 0.00 0.00 0.00 21 1009.7
20260902025108 93 167 6.0 11.0 0.00 0.00 0.00 20 1009.7
20260902024109 93 172 2.0 6.0 0.00 0.00 0.00 19 1009.6
20260902023605 94 207 2.0 7.0 0.00 0.00 0.00 18 1009.5
20260902023105 94 144 2.0 8.0 0.00 0.00 0.00 18 1009.4
20260902022605 94 173 4.0 13.0 0.00 0.00 0.00 18 1009.3
20260902022106 94 188 4.0 13.0 0.00 0.00 0.00 17 1009.4
20260902021606 95 201 4.0 9.0 0.00 0.00 0.00 17 1009.4
20260902021103 95 217 5.0 13.0 0.00 0.00 0.00 16 1009.4
20260902020603 95 232 7.0 16.0 0.00 0.00 0.00 16 1009.5
20260902020329 96 215 8.0 16.0 0.00 0.00 0.00 15 1009.3
20260902015603 96 294 7.0 15.0 0.00 0.00 0.00 15 1009.3
20260902015103 97 238 6.0 11.0 0.00 0.00 0.00 14 1009.2
20260902014603 97 305 6.0 12.0 0.00 0.00 0.00 15 1009.2
20260902014103 97 191 7.0 12.0 0.00 0.00 0.00 14 1009.1
20260902013603 98 225 9.0 16.0 0.00 0.00 0.00 13 1009.0
20260902013102 98 238 9.0 16.0 0.00 0.00 0.00 13 1009.0
20260902012827 99 206 7.0 14.0 0.00 0.00 0.00 13 1008.9
20260902012102 99 245 7.0 16.0 0.00 0.00 0.00 13 1008.8
20260902011603 100 226 7.0 16.0 0.00 0.00 0.00 12 1008.9
20260902011103 101 245 7.0 13.0 0.00 0.00 0.00 13 1009.0
20260902010601 101 266 8.0 14.0 0.00 0.00 0.00 13 1008.9
20260902005602 101 248 8.0 15.0 0.00 0.00 0.00 14 1008.9
20260902005328 101 160 8.0 14.0 0.00 0.00 0.00 14 1008.9
20260902004602 102 197 6.0 13.0 0.00 0.00 0.00 13 1008.9
20260902004102 102 202 5.0 11.0 0.00 0.00 0.00 13 1008.8
20260902003823 102 247 8.0 16.0 0.00 0.00 0.00 13 1008.9
20260902003101 102 211 9.0 16.0 0.00 0.00 0.00 13 1009.0
20260902002601 103 229 10.0 18.0 0.00 0.00 0.00 12 1009.0
20260902002101 103 229 9.0 18.0 0.00 0.00 0.00 11 1008.9
20260902001601 103 201 7.0 17.0 0.00 0.00 0.00 12 1008.8
20260902001101 103 221 3.0 16.0 0.00 0.00 0.00 13 1008.9
20260902000829 103 72 2.0 5.0 0.00 0.00 0.00 13 1009.1
20260901235602 103 210 2.0 6.0 0.00 0.00 0.00 14 1009.2
20260901235102 103 300 1.0 5.0 0.00 0.00 0.00 14 1009.2
20260901234604 104 339 1.0 4.0 0.00 0.00 0.00 14 1009.2
20260901233104 103 11 2.0 6.0 0.00 0.00 0.00 15 1009.2
20260901232603 103 46 3.0 10.0 0.00 0.00 0.00 15 1009.2
20260901232102 104 56 2.0 10.0 0.00 0.00 0.00 14 1009.1
20260901231829 104 351 2.0 8.0 0.00 0.00 0.00 14 1009.2
20260901231103 103 297 3.0 8.0 0.00 0.00 0.00 14 1009.4
20260901230602 102 175 2.0 7.0 0.00 0.00 0.00 15 1009.4
20260901230103 102 64 2.0 6.0 0.00 0.00 0.00 16 1009.5
20260901225602 102 307 2.0 6.0 0.00 0.00 0.00 15 1009.5
20260901225102 102 46 2.0 8.0 0.00 0.00 0.00 16 1009.5
20260901224828 102 69 3.0 8.0 0.00 0.00 0.00 16 1009.5
20260901224102 102 81 2.0 8.0 0.00 0.00 0.00 16 1009.6
20260901223557 103 352 2.0 5.0 0.00 0.00 0.00 16 1009.7
20260901223051 103 7 2.0 5.0 0.00 0.00 0.00 17 1009.8
20260901222545 103 96 2.0 5.0 0.00 0.00 0.00 18 1009.8
20260901222039 103 70 2.0 6.0 0.00 0.00 0.00 18 1009.8
20260901221532 102 109 2.0 6.0 0.00 0.00 0.00 17 1009.8
20260901221031 102 39 1.0 6.0 0.00 0.00 0.00 17 1009.9
20260901220530 101 309 1.0 5.0 0.00 0.00 0.00 17 1009.9
20260901220031 101 72 1.0 6.0 0.00 0.00 0.00 17 1010.0
20260901215030 101 332 1.0 3.0 0.00 0.00 0.00 17 1010.2
20260901214528 101 25 2.0 5.0 0.00 0.00 0.00 19 1010.2
20260901214032 101 15 2.0 6.0 0.00 0.00 0.00 17 1010.3
20260901213531 101 38 3.0 7.0 0.00 0.00 0.00 18 1010.4
20260901213030 100 22 2.0 7.0 0.00 0.00 0.00 17 1010.5
20260901212752 101 321 2.0 6.0 0.00 0.00 0.00 16 1010.6
20260901212029 101 28 1.0 3.0 0.00 0.00 0.00 16 1010.5
20260901211753 101 47 2.0 5.0 0.00 0.00 0.00 17 1010.6
20260901211029 101 321 2.0 7.0 0.00 0.00 0.00 16 1010.6
20260901210529 101 34 2.0 7.0 0.00 0.00 0.00 17 1010.7
20260901210028 101 43 2.0 7.0 0.00 0.00 0.00 17 1010.7
20260901205258 101 13 2.0 7.0 0.00 0.00 0.00 16 1010.8
20260901204526 102 64 2.0 5.0 0.00 0.00 0.00 16 1010.9
20260901204022 101 347 2.0 6.0 0.00 0.00 0.00 16 1011.1
20260901203515 101 41 2.0 7.0 0.00 0.00 0.00 17 1011.0
20260901203012 101 65 3.0 7.0 0.00 0.00 0.00 16 1011.1
20260901202509 101 118 3.0 7.0 0.00 0.00 0.00 16 1011.1
20260901202010 101 135 3.0 7.0 0.00 0.00 0.00 16 1011.2
20260901201509 101 89 3.0 8.0 0.00 0.00 0.00 16 1011.2
20260901201008 100 155 2.0 8.0 0.00 0.00 0.00 16 1011.4